Other Public Products
Issued by NWS Grand Forks, ND

Home | Current Version | Previous Version | Text Only | Print | Product List | Glossary On
Versions: 1 2 3 4 5 6 7 8 9 10 11 12 13 14 15 16 17 18 19 20 21 22 23 24 25 26 27 28 29 30 31 32 33 34 35 36 37 38 39 40 41 42 43 44 45 46 47 48 49 50
000
FPUS83 KFGF 281031
OPUFGF
PRAIRIE TO PINES WEATHER ROUNDUP
NATIONAL WEATHER SERVICE EASTERN NORTH DAKOTA/GRAND FORKS ND
500 AM CDT FRI APR 28 2017

 **SATELLITE DATA USED TO AUGMENT SKY COVER AT AUTOMATED STATIONS**
 *****  WEATHER ACROSS EASTERN NORTH DAKOTA  *****

CITY           SKY/WX    TMP DP  RH WIND       PRES   REMARKS
GRAND FORKS    FAIR      30  28  92 NW6       29.90R WCI  24
GRAND FORKS AF FAIR      30  26  86 NW7       29.90R WCI  23
GRAND CITY NWS NOT AVBL
BUXTON           N/A     29  28  95 W5          N/A  WCI  24
DEVILS LAKE    FAIR      27  23  85 NW8       29.92R WCI  19
FARGO          FAIR      27  25  92 W7        29.89R WCI  19
WAHPETON ARPT  FAIR      30  27  86 N7        29.90S WCI  23
$$

 *****  WEATHER ACROSS CENTRAL AND WESTERN NORTH DAKOTA  *****

CITY           SKY/WX    TMP DP  RH WIND       PRES   REMARKS
JAMESTOWN      FAIR      26  24  92 NW5       29.90R WCI  20
BISMARCK       FAIR      28  24  85 NE3       29.93R
MINOT          FAIR      27  23  85 SW6       29.94R WCI  20
MINOT AFB      FAIR      23  21  91 W3        29.93S
GARRISON         N/A     24  21  88 N6        29.92S WCI  17
WILLISTON      FAIR      26  20  77 CALM      29.93R
DICKINSON      FAIR      25  17  72 E7        29.87R WCI  17
HETTINGER      FAIR      28  22  78 NE10      29.87R WCI  19
$$

 *****  OTHER OBSERVATIONS NORTHEAST NORTH DAKOTA  *****

CITY           SKY/WX    TMP DP  RH WIND       PRES   REMARKS
WALHALLA       NOT AVBL
LANGDON        FAIR      25  19  80 NW12      29.90S WCI  14
CAVALIER       FAIR      28  23  80 W6        29.90R WCI  22
GRAFTON        FAIR      32  28  86 W8        29.93R WCI  25
CANDO          NOT AVBL
FORT TOTTEN      N/A     31  23  73 CALM      29.95S
ROLLA          FAIR      25  19  80 NW9       29.92R WCI  15
RUGBY          NOT AVBL
 ***** THE ABOVE OBSERVATIONS ARE NON NWS ARE NOT QUALITY
        CONTROLLED AND MAY MIS-REPORT RAIN FOR SNOW...
$$

 *****  OTHER OBSERVATIONS SOUTHEAST NORTH DAKOTA *****

CITY           SKY/WX    TMP DP  RH WIND       PRES   REMARKS
COOPERSTOWN    FAIR      28  27  93 NW8       29.91S WCI  20
VALLEY CITY    FAIR      28  28 100 NW9       29.91R WCI  20
OAKES          NOT AVBL
GWINNER        SUNNY     30  28  93 MISG      29.90R
SHEYENNE NWR     N/A     28  25  88 NW3       29.95S
BUFFALO          N/A     28  26  93 CALM        N/A
WYNDMERE         N/A     30  27  86 NW5         N/A
 ***** THE ABOVE OBSERVATIONS ARE NON NWS ARE NOT QUALITY
       CONTROLLED AND MAY MIS-REPORT RAIN FOR SNOW...
$$

  *****  WEATHER ACROSS NORTHERN MINNESOTA  *****

CITY           SKY/WX    TMP DP  RH WIND       PRES   REMARKS
FLAG ISLAND    FAIR      30  27  86 NW14      29.78S WCI  20
WARROAD        FAIR      28  25  86 NW8       29.82R WCI  20
ROSEAU         FAIR      28  25  86 NW5       29.83S WCI  23
HALLOCK        FAIR      30  27  86 NW6       29.89R WCI  24
THF RVR FALLS  CLOUDY    30  26  85 NW6       29.87  WCI  24
HALSTAD          N/A     29  25  85 NW9         N/A  WCI  20
FOSSTON        CLOUDY    28  25  86 NW9       29.86R WCI  20
BAUDETTE       FLURRIES  30  25  81 NW14      29.76R WCI  19
WASKISH        CLOUDY    28  27  93 W13G18    29.80R WCI  18
CROOKSTON      FAIR      30  28  93 N12       29.90R WCI  21
$$
  *****  WEATHER ACROSS CENTRAL AND WEST MINNESOTA  *****

CITY           SKY/WX    TMP DP  RH WIND       PRES   REMARKS
BEMIDJI        MOCLDY    26  24  91 W12       29.82R WCI  16
PARK RAPIDS    MOCLDY    29  22  75 NW9       29.82R WCI  20
WADENA         MOCLDY    28  25  86 NW12      29.85R WCI  18
DETROIT LAKES  FAIR      30  28  93 NW10      29.88R WCI  21
MOORHEAD       FAIR      28  27  93 W5        29.90S WCI  23
FERGUS FALLS   FAIR      28  28 100 NW7       29.89S WCI  21
ELBOW LAKE     FAIR      30  28  92 NW12      29.88R WCI  21
MORRIS MN      FAIR      28  28 100 NW10      29.86S WCI  19
STAPLES        FAIR      25  21  86 W6        29.85R WCI  18
WHEATON        FAIR      28  25  86 NW5       29.91R WCI  23
$$
  *****  WEATHER ELSEWHERE ACROSS MINNESOTA  *****

CITY           SKY/WX    TMP DP  RH WIND       PRES   REMARKS
DULUTH         FLURRIES  28  24  85 W13       29.72R WCI  17
INTRNTL FALLS  LGT SNOW  27  24  89 W9        29.72R FOG     WCI  18
ELY            CLOUDY    27  21  80 W10       29.67R WCI  17
CLOQUET        MOCLDY    28  21  74 W10       29.76R WCI  19
BRAINERD       FAIR      29  22  75 NW10      29.83R WCI  20
HIBBING        CLOUDY    26  21  81 NW12      29.72R WCI  16
ALEXANDRIA     FAIR      31  27  85 NW9       29.84R WCI  23
SAINT CLOUD    MOCLDY    33  25  72 NW10      29.83R WCI  25
MINNEAPOLIS    CLOUDY    36  27  69 SW5       29.84S
$$

  *****  WEATHER ACROSS SOUTH DAKOTA  *****

CITY           SKY/WX    TMP DP  RH WIND       PRES   REMARKS
SIOUX FALLS    FAIR      26  25  96 N6        29.85R WCI  19
BROOKINGS      FAIR      24  23  96 CALM      29.85S
WATERTOWN      FAIR      23  22  96 N7        29.86S WCI  15
HURON          FAIR      27  24  89 NE5       29.86R WCI  22
SISSETON         N/A     29  26  89 NW8       29.89R WCI  21
ABERDEEN       FAIR      28  24  85 NE7       29.90R WCI  21
MITCHELL       FAIR      29  26  89 CALM      29.86R
PIERRE         FAIR      27  23  85 NE6       29.82R WCI  20
MOBRIDGE       FAIR      34  25  69 E12       29.85R
RAPID CITY     CLOUDY    37  31  78 N8        29.78R
$$

  *****  SOME WEATHER IN NEARBY STATES *****

CITY           SKY/WX    TMP DP  RH WIND       PRES   REMARKS
GLASGOW MT     CLOUDY    41  17  38 E10       29.89R
GREAT FALLS MT CLOUDY    36  34  92 SW7       29.89R
CHEYENNE WY    FAIR      30  24  78 CALM      29.60S
SCOTTSBLUFF NE LGT RAIN  37  34  89 E16       29.62R
OMAHA NE       CLOUDY    44  33  65 E16       29.78F
DES MOINES IA  CLOUDY    41  31  67 NE14      29.86R
DAVENPORT IA   MOCLDY    37  32  82 N3        29.90R
CHICAGO IL     CLOUDY    42  34  73 NW7       29.87R
EAU CLAIRE WI  CLOUDY    34  27  75 W12       29.83R
LA CROSSE WI   FAIR      35  27  72 W9        29.87R
$$

  *****  SOME NATIONAL WEATHER *****

CITY           SKY/WX    TMP DP  RH WIND       PRES   REMARKS
LA GUARDIA NY  FOG       58  56  93 E7        29.92R VSB 3/4
RALEIGH NC     FAIR      70  67  90 SW6       29.99R
ATLANTA GA     DRZL/FOG  69  68  96 SW7       29.96R VSB 1
NEW ORLEANS LA CLOUDY    78  74  87 SE15G23   29.78R
OKLAHOMA CITY  MOCLDY    57  52  83 SE14      29.54R
ALBUQUERQUE NM FAIR      47  27  45 N8        29.76R
SALT LAKE CITY CLOUDY    37  30  75 SE5       29.86F
LOS ANGELES CA FAIR      71  31  22 N13G29    29.71F
BOISE ID       FAIR      36  31  82 NW10      30.00R
SEATTLE WA     CLOUDY    45  41  86 S8        30.24R
$$

*** WEATHER ACROSS MANITOBA...SASKATCHEWAN AND ONTARIO ***
                ***ONTARIO***

CITY           SKY/WX    TMP DP  RH WIND       PRES   REMARKS
GERALDTON      FLURRIES  23  21  93 W12G21    29.48R WCI  12
THUNDER BAY    CLOUDY    27  23  86 SW9       29.62R WCI  17
SIOUX LOOKOUT  FLURRIES  23  19  86 NW14      29.60R WCI  11
TORONTO        PTCLDY    48  39  71 SW3       29.90R
BIG TROUT LK   CLOUDY    21  10  63 N13G29    29.59F WCI   9
PICKLE LAKE    NOT AVBL
DRYDEN         FLURRIES  25  23  93 NW10      29.64R WCI  15
KENORA         CLOUDY    27  23  86 NW9       29.73S WCI  17
$$
                *** MANITOBA***

CITY           SKY/WX    TMP DP  RH WIND       PRES   REMARKS
BRANDON        CLEAR     25  14  63 N8        29.94R WCI  16
DAUPHIN        CLEAR     21  12  68 W9        29.97R WCI  11
ISLAND LAKE    MOCLDY    27  10  50 N8        29.87S WCI  18
PILOT MOUND      N/A     25  16  68 N7          N/A  WCI  17
THE PAS        PTCLDY    21  14  73 N2        30.00R
THOMPSON       MOCLDY    21   7  53 N5        30.01R WCI  15
WINNIPEG       PTCLDY    23  18  80 NW8       29.87R WCI  14
LYNN LAKE      MOCLDY    19  10  68 NW3       30.02R
CHURCHILL      PTCLDY    10   9  92 SW7       30.04F WCI   0
GILLAM         CLOUDY    14   9  79 N5        29.99F WCI   6
$$
                ***SASKATCHEWAN***

CITY           SKY/WX    TMP DP  RH WIND       PRES   REMARKS
ESTEVAN        PTCLDY    28  27  93 SE7       29.95R WCI  21
KINDERSLEY     PTCLDY    25  25 100 SW5       29.90R WCI  19
LLOYDMINSTER   FLURRIES  32  32 100 E7        29.97R
PRINCE ALBERT  MOCLDY    32  18  55 E2        29.97R
REGINA         MOCLDY    32  19  59 SE12      29.94R WCI  23
YORKTON        CLEAR     27  23  86 CALM      29.97R


USA.gov is the U.S. government's official web portal to all federal, state and local government web resources and services.